Skip Page Navigation
NASA JPL Caltech
NASA Logo - Jet Propulsion Laboratory + View the NASA Portal
+ Near-Earth Object (NEO) Program
Search JPL
JPL Home Earth Solar System Stars & Galaxies Technology
JPL Solar System Dynamics
BODIES ORBITS EPHEMERIDES TOOLS PHYSICAL DATA DISCOVERY FAQ SITE MAP
JPL Small-Body Database Browser
Search: [ help ]  
22501 (1997 PR3)
Classification: Main-belt Asteroid          SPK-ID: 2022501
Ephemeris | Orbit Diagram | Orbital Elements | Physical Parameters | Discovery Circumstances | Close-Approach Data ]

[ show orbit diagram ]
Orbital Elements at Epoch 2457000.5 (2014-Dec-09.0) TDB
Reference: JPL 10 (heliocentric ecliptic J2000)
 Element Value Uncertainty (1-sigma)   Units 
e .1750385857145023 6.0357e-08  
a 2.371835524779437 1.6916e-08 AU
q 1.95667278897463 1.4365e-07 AU
i 1.568067724561746 6.0207e-06 deg
node 110.1328613029811 0.0002452 deg
peri 142.7025322888046 0.00024617 deg
M 336.0037229338041 2.1243e-05 deg
tp 2457089.433758784232
(2015-Mar-07.93375878)
7.9081e-05 JED
period 1334.213347929096
3.65
1.4273e-05
3.908e-08
d
yr
n .2698219145826831 2.8866e-09 deg/d
Q 2.786998260584244 1.9877e-08 AU
  Orbit Determination Parameters
   # obs. used (total)      605  
   data-arc span      7988 days (21.87 yr)  
   first obs. used      1993-07-12  
   last obs. used      2015-05-26  
   planetary ephem.      DE431  
   SB-pert. ephem.      SB431-BIG16  
   condition code      0  
   fit RMS      .56262  
   data source      ORB  
   producer      Otto Matic  
   solution date      2015-Jun-04 16:42:30  

Additional Information
 Earth MOID = .944023 AU 
 T_jup = 3.523 
[ show covariance matrix ]

Ephemeris | Orbit Diagram | Orbital Elements | Physical Parameters | Discovery Circumstances | Close-Approach Data ]

Physical Parameter Table
Parameter Symbol Value Units Sigma Reference Notes
absolute magnitude H 15.6 mag n/a MPO244382  

22501 (1997 PR3)          Discovered 1997-Aug-05 by Beijing Schmidt CCD Asteroid Program at Xinglong
Reference: 20010309/Numbers.arcLast Updated: 2004-04-19

[ show close-approach data ]
Alternate Designations
 1997 PR3 = 1993 OQ11 
Ephemeris | Orbit Diagram | Orbital Elements | Physical Parameters | Discovery Circumstances | Close-Approach Data ]
ABOUT SSD CREDITS/AWARDS PRIVACY/COPYRIGHT GLOSSARY LINKS
FirstGov 2015-Jul-03 12:19 UT
(server date/time)  
NASA Home Page
Site Manager:   Ryan S. Park
Webmaster  Alan B. Chamberlin